Home   Weather   Lugo   Past weeks

Flag for Spain Past Weather in Lugo, Galicia, Spain — Yesterday and Last 2 Weeks

Now
28 °F

Clear.


Feels Like: 28 °F
Forecast: 26 / 48 °F
Wind: 1 mph from North

Location: Santiago / Labacolla

Current Time: Jan 21, 2017 at 7:38:20 am

Latest Report: Jan 21, 2017 at 7:00 am


Visibility: 10 mi

Pressure: 30.12 "Hg

Humidity: 93%

Dew Point: 27 °F

Location of LugoLocation

Past Weather in Lugo — Graph

°F

Lugo Temperature Yesterday

Maximum temperature yesterday: 52 °F (at 3:00 pm)
Minimum temperature yesterday: 27 °F (at 7:00 am)
Average temperature yesterday: 37 °F

High & Low Weather Summary for the Past Weeks

 TemperatureHumidityPressure
High59 °F (Jan 6, 3:30 pm)100% (Jan 7, 3:00 am)30.57 "Hg (Jan 7, 3:00 am)
Low27 °F (Jan 20, 7:00 am)35% (Jan 20, 3:30 pm)30.09 "Hg (Jan 20, 2:30 pm)
Average43 °F83%30.34 "Hg
* Reported Jan 6 6:00 am — Jan 21 6:30 am, Lugo, Weather by CustomWeather, © 2017

Note: Actual official high and low records may vary slightly from our data, if they occured in-between our weather recording intervals... More about our weather records

Advertising

Lugo Weather History for the Previous 24 Hours

Scroll right to see more
 ConditionsComfort  
Time TempWeatherWind HumidityBarometerVisibility
6:30 am
Sat, Jan 21
30 °FClear.No wind93%30.12 "Hg10 mi
6:00 am32 °FClear.2 mph87%30.12 "Hg10 mi
5:30 am36 °FClear.3 mph87%30.12 "Hg10 mi
5:00 am28 °FClear.No wind93%30.12 "Hg10 mi
4:30 am32 °FClear.2 mph93%30.12 "Hg10 mi
4:00 am30 °FClear.No wind93%30.12 "Hg10 mi
3:30 am36 °FClear.3 mph87%30.12 "Hg10 mi
3:00 am32 °FClear.1 mph87%30.12 "Hg10 mi
2:30 am36 °FClear.3 mph81%30.12 "Hg10 mi
2:00 am36 °FPassing clouds.3 mph87%30.12 "HgN/A
1:30 am37 °FClear.7 mph81%30.12 "Hg10 mi
1:00 am37 °FClear.9 mph81%30.12 "Hg10 mi
12:30 am36 °FClear.6 mph87%30.15 "Hg10 mi
12:00 am34 °FClear.1 mph87%30.15 "Hg10 mi
11:30 pm
Fri, Jan 20
37 °FClear.9 mph81%30.12 "Hg10 mi
11:00 pm36 °FClear.5 mph87%30.15 "Hg10 mi
10:30 pm36 °FClear.2 mph87%30.15 "Hg10 mi
10:00 pm34 °FClear.No wind93%30.12 "Hg10 mi
9:30 pm36 °FClear.No wind81%30.12 "Hg10 mi
9:00 pm37 °FClear.5 mph81%30.12 "Hg10 mi
8:30 pm39 °FPassing clouds.3 mph75%30.12 "HgN/A
8:00 pm41 °FClear.2 mph70%30.12 "Hg10 mi
7:30 pm43 °FPassing clouds.3 mph71%30.09 "HgN/A
7:00 pm45 °FPassing clouds.3 mph66%30.09 "HgN/A
6:30 pm45 °FPassing clouds.6 mph66%30.09 "HgN/A
6:00 pm46 °FPassing clouds.6 mph53%30.09 "HgN/A
5:30 pm50 °FPassing clouds.5 mph43%30.09 "HgN/A
5:00 pm50 °FPassing clouds.6 mph40%30.09 "HgN/A
4:30 pm52 °FPassing clouds.6 mph38%30.09 "HgN/A
4:00 pm52 °FPassing clouds.5 mph35%30.09 "HgN/A
3:30 pm52 °FPassing clouds.5 mph35%30.09 "HgN/A
3:00 pm52 °FPassing clouds.6 mph41%30.09 "HgN/A
2:30 pm50 °FPassing clouds.5 mph47%30.09 "HgN/A
2:00 pm48 °FSunny.2 mph50%30.12 "Hg10 mi
1:30 pm46 °FPassing clouds.6 mph50%30.12 "HgN/A
1:00 pm45 °FPassing clouds.5 mph49%30.15 "HgN/A
12:30 pm43 °FSunny.No wind66%30.15 "Hg10 mi
12:00 pm37 °FSunny.No wind75%30.15 "Hg10 mi
11:30 am34 °FSunny.1 mph81%30.15 "Hg10 mi
11:00 am34 °FSunny.2 mph70%30.15 "Hg10 mi
10:30 am32 °FPassing clouds.3 mph75%30.15 "HgN/A
10:00 am32 °FPassing clouds.1 mph75%30.15 "HgN/A
9:30 am28 °FPassing clouds.No wind80%30.15 "HgN/A
9:00 am27 °FPassing clouds.No wind86%30.12 "HgN/A
8:30 am27 °FPassing clouds.1 mph93%30.12 "HgN/A
8:00 am30 °FClear.1 mph80%30.12 "Hg10 mi
7:30 am32 °FClear.2 mph75%30.12 "Hg10 mi
7:00 am27 °FClear.No wind93%30.12 "Hg10 mi
Weather by CustomWeather, © 2017

See weather overviewHow to use our weather pages